Weather History for Francistown, Botswana

Change the Weather History Date:

Friday, May 17, 2013

  Actual Average Record
Temperature  
Mean Temperature 66 °F -  
Max Temperature 84 °F 75 °F 87 °F (2005)
Min Temperature 47 °F 44 °F 39 °F (2002)
Growing Degree Days 16 (Base 50)    
Moisture  
Dew Point 40 °F    
Average Humidity 41    
Maximum Humidity 71    
Minimum Humidity 20    
Precipitation  
Precipitation 0.00 in - - ()
Sea Level Pressure  
Sea Level Pressure 30.15 in    
Wind  
Wind Speed 4 mph ()    
Max Wind Speed 13 mph    
Max Gust Speed -    
Visibility 6.1 miles    
Events      
Averages and records for this station are not official NWS values.
T = Trace of Precipitation, MM = Missing Value Source: Averaged Metar Reports

Daily Weather History Graph

Daily Weather History Graph

Search for Another Location

Airport:

Trip Planner

Search our weather history database for the weather conditions in past years. The results will help you decide how hot, cold, wet, or windy it might be!

Date:

Astronomy

May. 17, 2013 Rise Set
Actual Time 6:33 AM CAT 5:38 PM CAT
Civil Twilight 6:10 AM CAT 6:02 PM CAT
Nautical Twilight 5:43 AM CAT 6:29 PM CAT
Astronomical Twilight 5:16 AM CAT 6:56 PM CAT
Moon 12:00 PM CAT (5/17) 11:50 PM CAT (5/17)
Length of Visible Light 11h 51m
Length of Day
11h 04m
Waxing Crescent, 42% of the Moon is Illuminated
May 17
Waxing Crescent
May 18
First Quarter
May 25
Full
May 31
Last Quarter
Jun 8
New

Hourly Weather History & Observations

Time (CAT) Temp. Windchill Dew Point Humidity Pressure Visibility Wind Dir Wind Speed Gust Speed Precip Events Conditions
12:00 AM 57.2 °F - 41.0 °F 55% 30.12 in - North 5.8 mph - N/A   Clear
1:00 AM 55.4 °F - 39.2 °F 54% 30.12 in - West 6.9 mph - N/A   Clear
2:00 AM 53 °F - 39 °F 48%  in 6 mi West 6.9 mph - -   Partly Cloudy
3:00 AM 51.8 °F - 39.2 °F 62% 30.12 in - ESE 3.5 mph - N/A   Clear
4:00 AM 50.0 °F - 39.2 °F 66% 30.09 in - Calm Calm - N/A   Clear
5:00 AM 46.4 °F - 37.4 °F 71% 30.12 in - Calm Calm - N/A   Clear
6:00 AM 50.0 °F - 37.4 °F 62% 30.12 in - Variable 2.3 mph - N/A   Clear
7:00 AM 46.4 °F 45.2 °F 37.4 °F 71% 30.15 in - NW 3.5 mph - N/A   Clear
8:00 AM 58 °F - 40 °F 39%  in 6 mi North 4.6 mph - -  
8:00 AM 57.2 °F - 39.2 °F 51% 30.18 in - North 4.6 mph - N/A   Clear
9:00 AM 69.8 °F - 42.8 °F 38% 30.18 in - North 4.6 mph - N/A   Clear
10:00 AM 77.0 °F - 42.8 °F 29% 30.21 in - NE 3.5 mph - N/A   Clear
11:00 AM 80.6 °F - 39.2 °F 23% 30.21 in - East 4.6 mph - N/A   Clear
12:00 PM 82.4 °F - 41.0 °F 23% 30.18 in - ENE 5.8 mph - N/A   Clear
1:00 PM 82.4 °F - 41.0 °F 23% 30.15 in - North 5.8 mph - N/A   Clear
2:00 PM 84.2 °F - 41.0 °F 22% 30.12 in - East 11.5 mph - N/A   Clear
3:00 PM 84.2 °F - 39.2 °F 20% 30.09 in 6.2 mi SE 3.5 mph - N/A   Partly Cloudy
4:00 PM 82.4 °F - 42.8 °F 25% 30.09 in - ESE 12.7 mph - N/A   Clear
5:00 PM 80.6 °F - 39.2 °F 23% 30.12 in - East 12.7 mph - N/A   Clear
6:00 PM 75.2 °F - 39.2 °F 27% 30.15 in - SE 5.8 mph - N/A   Clear
7:00 PM 69.8 °F - 41.0 °F 35% 30.15 in - SE 5.8 mph - N/A   Clear
8:00 PM 67 °F - 43 °F 31%  in 6 mi SE 4.6 mph - -  
8:00 PM 66.2 °F - 42.8 °F 43% 30.18 in - SE 4.6 mph - N/A   Clear
9:00 PM 62.6 °F - 39.2 °F 42% 30.21 in - SE 5.8 mph - N/A   Clear
10:00 PM 62.6 °F - 41.0 °F 45% 30.24 in - South 3.5 mph - N/A   Clear
11:00 PM 60.8 °F - 41.0 °F 48% 30.24 in - Calm Calm - N/A   Clear